EZY24B LTFM-EGKK

Flight info

Callsign EZY24B
Flight time 3h 26m
Altitude 36000
Route VADEN1D/35L VADEN N618 GOL Y520 LUKOV Q8 DOLAP DCT VEBAR DCT BOSNA DCT RIFEN DCT SAFFA DCT ELMUR L613 RIPUS DCT DITON DCT HOC DCT LUL DCT RLP DCT ROTSI DCT KOTUN DCT NINAL DCT KESAX DCT KUNAV
Aircraft A320/M-SDE3FGHIRWY/LB1

Departure

Time 2026-05-04 13:29
Airport İstanbul Airport (LTFM)

Arrival

Time 2026-05-04 16:56
Airport London Gatwick Airport (EGKK)
Time Latitude Longitude Altitude Speed Heading
2026-05-04 13:06 41.26361 28.73979 330 ft 0 kts 179°
2026-05-04 13:08 41.26335 28.73978 333 ft 0 kts 179°
2026-05-04 13:18 41.26337 28.73977 334 ft 1 kts 179°
2026-05-04 13:19 41.26355 28.73978 333 ft 3 kts 185°
2026-05-04 13:19 41.26375 28.73981 329 ft 3 kts 193°
2026-05-04 13:19 41.26394 28.73989 330 ft 3 kts 201°
2026-05-04 13:19 41.26412 28.73999 330 ft 3 kts 208°
2026-05-04 13:20 41.26430 28.74012 330 ft 3 kts 204°
2026-05-04 13:20 41.26448 28.74020 329 ft 3 kts 186°
2026-05-04 13:20 41.26469 28.74022 330 ft 3 kts 176°
2026-05-04 13:20 41.26484 28.74020 331 ft 1 kts 176°
2026-05-04 13:21 41.26485 28.74020 331 ft 1 kts 176°
2026-05-04 13:23 41.26484 28.74020 331 ft 1 kts 176°
2026-05-04 13:23 41.26451 28.74024 329 ft 8 kts 179°
2026-05-04 13:23 41.26417 28.73957 334 ft 11 kts 287°
2026-05-04 13:23 41.26493 28.73902 332 ft 14 kts 339°
2026-05-04 13:24 41.26587 28.73878 330 ft 13 kts 358°
2026-05-04 13:24 41.26678 28.73877 331 ft 13 kts 359°
2026-05-04 13:24 41.26766 28.73875 333 ft 12 kts 359°
2026-05-04 13:25 41.26930 28.73871 334 ft 11 kts 358°
2026-05-04 13:25 41.27005 28.73868 332 ft 11 kts 357°
2026-05-04 13:25 41.27049 28.73802 333 ft 12 kts 276°
2026-05-04 13:25 41.27048 28.73631 334 ft 22 kts 269°
2026-05-04 13:26 41.27046 28.73420 330 ft 23 kts 270°
2026-05-04 13:26 41.27043 28.73210 332 ft 21 kts 267°
2026-05-04 13:26 41.27038 28.73054 334 ft 17 kts 265°
2026-05-04 13:26 41.26964 28.72987 332 ft 13 kts 181°
2026-05-04 13:27 41.26856 28.72992 330 ft 18 kts 178°
2026-05-04 13:27 41.26752 28.72989 331 ft 11 kts 189°
2026-05-04 13:27 41.26717 28.72910 333 ft 14 kts 265°
2026-05-04 13:27 41.26716 28.72742 334 ft 22 kts 269°
2026-05-04 13:28 41.26716 28.72545 330 ft 16 kts 289°
2026-05-04 13:28 41.26814 28.72511 331 ft 18 kts 359°
2026-05-04 13:28 41.27161 28.72501 332 ft 82 kts 359°
2026-05-04 13:28 41.27925 28.72478 333 ft 135 kts 358°
2026-05-04 13:29 41.28919 28.72440 719 ft 147 kts 359°
2026-05-04 13:29 41.29958 28.72403 1346 ft 150 kts 360°
2026-05-04 13:29 41.30999 28.72394 2003 ft 148 kts
2026-05-04 13:29 41.32060 28.72407 2459 ft 161 kts
2026-05-04 13:30 41.33250 28.72437 2795 ft 181 kts
2026-05-04 13:30 41.34583 28.72465 3085 ft 202 kts
2026-05-04 13:30 41.36037 28.72294 3397 ft 226 kts 342°
2026-05-04 13:30 41.37344 28.71031 4009 ft 244 kts 309°
2026-05-04 13:31 41.38231 28.69076 4874 ft 248 kts 306°
2026-05-04 13:31 41.39141 28.67123 5738 ft 249 kts 307°
2026-05-04 13:31 41.40076 28.65177 6621 ft 250 kts 308°
2026-05-04 13:31 41.41019 28.63225 7433 ft 252 kts 308°
2026-05-04 13:32 41.41971 28.61248 8222 ft 255 kts 308°
2026-05-04 13:32 41.42929 28.59248 9011 ft 258 kts 308°
2026-05-04 13:32 41.43897 28.57212 9783 ft 262 kts 308°
2026-05-04 13:32 41.44884 28.55133 10324 ft 273 kts 308°
2026-05-04 13:33 41.45946 28.52906 10513 ft 296 kts 308°
2026-05-04 13:33 41.47083 28.50525 10828 ft 311 kts 308°
2026-05-04 13:33 41.48256 28.48046 11341 ft 320 kts 308°
2026-05-04 13:33 41.49451 28.45504 11957 ft 326 kts 308°
2026-05-04 13:34 41.50663 28.42917 12599 ft 331 kts 309°
2026-05-04 13:34 41.51876 28.40325 13214 ft 336 kts 309°
2026-05-04 13:34 41.53126 28.37660 13817 ft 341 kts 309°
2026-05-04 13:34 41.54395 28.34951 14364 ft 347 kts 309°
2026-05-04 13:35 41.55683 28.32198 14903 ft 352 kts 309°
2026-05-04 13:35 41.58309 28.26592 16002 ft 360 kts 308°
2026-05-04 13:35 41.59639 28.23747 16524 ft 363 kts 308°
2026-05-04 13:36 41.60980 28.20869 17095 ft 366 kts 308°
2026-05-04 13:36 41.62334 28.17965 17634 ft 370 kts 308°
2026-05-04 13:36 41.63706 28.15026 18179 ft 374 kts 308°
2026-05-04 13:36 41.65092 28.12056 18644 ft 378 kts 308°
2026-05-04 13:37 41.66488 28.09057 19114 ft 382 kts 308°
2026-05-04 13:37 41.67894 28.06023 19596 ft 385 kts 307°
2026-05-04 13:37 41.69310 28.02964 20078 ft 389 kts 308°
2026-05-04 13:37 41.70274 28.00881 20399 ft 391 kts 308°
2026-05-04 13:38 41.72179 27.96768 21021 ft 395 kts 308°
2026-05-04 13:38 41.73632 27.93632 21497 ft 398 kts 308°
2026-05-04 13:38 41.75101 27.90464 21971 ft 401 kts 308°
2026-05-04 13:38 41.76576 27.87279 22440 ft 405 kts 308°
2026-05-04 13:39 41.78063 27.84058 22899 ft 408 kts 308°
2026-05-04 13:39 41.79562 27.80810 23345 ft 411 kts 308°
2026-05-04 13:39 41.81072 27.77533 23751 ft 415 kts 308°
2026-05-04 13:39 41.82590 27.74233 24123 ft 417 kts 308°
2026-05-04 13:40 41.84115 27.70912 24453 ft 420 kts 307°
2026-05-04 13:40 41.85650 27.67562 24820 ft 422 kts 307°
2026-05-04 13:40 41.87188 27.64196 25167 ft 425 kts 307°
2026-05-04 13:40 41.88736 27.60810 25519 ft 427 kts 307°
2026-05-04 13:41 41.90291 27.57411 25869 ft 428 kts 307°
2026-05-04 13:41 41.91834 27.54037 26210 ft 430 kts 307°
2026-05-04 13:41 41.93402 27.50608 26550 ft 432 kts 307°
2026-05-04 13:42 41.96556 27.43688 27180 ft 437 kts 306°
2026-05-04 13:42 41.98145 27.40196 27486 ft 439 kts 306°
2026-05-04 13:42 41.99740 27.36682 27813 ft 441 kts 306°
2026-05-04 13:42 42.01340 27.33155 28129 ft 443 kts 306°
2026-05-04 13:43 42.02947 27.29609 28437 ft 445 kts 306°
2026-05-04 13:43 42.04558 27.26043 28729 ft 447 kts 306°
2026-05-04 13:43 42.06198 27.22483 29011 ft 447 kts 309°
2026-05-04 13:43 42.08129 27.19227 29227 ft 445 kts 316°
2026-05-04 13:44 42.10211 27.16123 29450 ft 449 kts 316°
2026-05-04 13:44 42.12305 27.12994 29714 ft 451 kts 316°
2026-05-04 13:44 42.14408 27.09846 29978 ft 453 kts 316°
2026-05-04 13:44 42.16517 27.06680 30208 ft 455 kts 316°
2026-05-04 13:45 42.18633 27.03495 30422 ft 457 kts 316°
2026-05-04 13:45 42.20752 27.00292 30631 ft 458 kts 316°
2026-05-04 13:45 42.22873 26.97076 30852 ft 459 kts 315°
2026-05-04 13:45 42.24998 26.93861 31118 ft 459 kts 315°
2026-05-04 13:46 42.27121 26.90647 31398 ft 459 kts 315°
2026-05-04 13:46 42.29242 26.87428 31691 ft 458 kts 315°
2026-05-04 13:46 42.31360 26.84216 31978 ft 458 kts 315°
2026-05-04 13:46 42.33477 26.81006 32258 ft 457 kts 315°
2026-05-04 13:47 42.35590 26.77802 32542 ft 456 kts 315°
2026-05-04 13:47 42.37699 26.74590 32807 ft 456 kts 314°
2026-05-04 13:47 42.39803 26.71380 33055 ft 456 kts 314°
2026-05-04 13:47 42.41910 26.68164 33311 ft 456 kts 314°
2026-05-04 13:48 42.44017 26.64949 33573 ft 456 kts 314°
2026-05-04 13:48 42.46121 26.61738 33834 ft 456 kts 314°
2026-05-04 13:48 42.48224 26.58523 34078 ft 456 kts 314°
2026-05-04 13:48 42.50323 26.55308 34302 ft 455 kts 314°
2026-05-04 13:49 42.52390 26.52062 34544 ft 455 kts 310°
2026-05-04 13:49 42.54148 26.48482 34740 ft 458 kts 300°
2026-05-04 13:49 42.55472 26.44556 34933 ft 459 kts 290°
2026-05-04 13:49 42.56494 26.40509 35140 ft 459 kts 290°
2026-05-04 13:50 42.57529 26.36416 35349 ft 458 kts 290°
2026-05-04 13:50 42.58569 26.32336 35572 ft 457 kts 290°
2026-05-04 13:50 42.59607 26.28267 35781 ft 456 kts 290°
2026-05-04 13:50 42.60641 26.24201 35988 ft 455 kts 290°
2026-05-04 13:51 42.62681 26.16099 36054 ft 452 kts 290°
2026-05-04 13:51 42.64704 26.08022 36051 ft 452 kts 290°
2026-05-04 13:52 42.67744 25.95896 36054 ft 452 kts 290°
2026-05-04 13:53 42.69760 25.87796 36042 ft 452 kts 291°
2026-05-04 13:53 42.71770 25.79694 36053 ft 452 kts 290°
2026-05-04 13:54 42.74778 25.67526 36051 ft 454 kts 290°
2026-05-04 13:55 42.77783 25.55304 36059 ft 454 kts 289°
2026-05-04 13:55 42.80774 25.43087 36072 ft 454 kts 290°
2026-05-04 13:56 42.82426 25.36299 36056 ft 454 kts 289°
2026-05-04 13:57 42.85388 25.24033 36085 ft 454 kts 289°
2026-05-04 13:58 42.89330 25.07682 36077 ft 454 kts 289°
2026-05-04 13:58 42.92275 24.95395 36099 ft 453 kts 290°
2026-05-04 13:59 42.94211 24.87275 36100 ft 452 kts 289°
2026-05-04 14:00 42.97115 24.75036 36111 ft 451 kts 289°
2026-05-04 14:00 42.99993 24.62831 36119 ft 450 kts 289°
2026-05-04 14:01 43.01907 24.54699 36115 ft 449 kts 288°
2026-05-04 14:02 43.04756 24.42527 36135 ft 447 kts 288°
2026-05-04 14:02 43.06640 24.34435 36128 ft 447 kts 289°
2026-05-04 14:03 43.08513 24.26334 36114 ft 446 kts 288°
2026-05-04 14:03 43.11055 24.18655 36122 ft 443 kts 303°
2026-05-04 14:04 43.15992 24.07976 36123 ft 442 kts 302°
2026-05-04 14:04 43.19260 24.00831 36113 ft 442 kts 302°
2026-05-04 14:05 43.24122 23.90185 36121 ft 440 kts 303°
2026-05-04 14:06 43.27261 23.82991 36115 ft 440 kts 296°
2026-05-04 14:06 43.28981 23.74968 36114 ft 441 kts 277°
2026-05-04 14:07 43.29717 23.66619 36098 ft 440 kts 278°
2026-05-04 14:07 43.30469 23.58280 36097 ft 440 kts 278°
2026-05-04 14:08 43.31213 23.49935 36102 ft 440 kts 278°
2026-05-04 14:08 43.31944 23.41589 36102 ft 440 kts 278°
2026-05-04 14:09 43.33025 23.29061 36090 ft 441 kts 278°
2026-05-04 14:10 43.34112 23.16473 36085 ft 443 kts 278°
2026-05-04 14:10 43.34828 23.08050 36094 ft 444 kts 278°
2026-05-04 14:11 43.35538 22.99615 36098 ft 445 kts 279°
2026-05-04 14:11 43.36596 22.86971 36098 ft 444 kts 279°
2026-05-04 14:12 43.37294 22.78543 36104 ft 443 kts 281°
2026-05-04 14:13 43.39802 22.66487 36105 ft 439 kts 290°
2026-05-04 14:13 43.41646 22.58481 36102 ft 439 kts 290°
2026-05-04 14:14 43.43474 22.50490 36113 ft 437 kts 290°
2026-05-04 14:14 43.46195 22.38526 36109 ft 436 kts 290°
2026-05-04 14:15 43.49798 22.22596 36104 ft 435 kts 291°
2026-05-04 14:16 43.52476 22.10675 36111 ft 434 kts 290°
2026-05-04 14:17 43.55139 21.98750 36111 ft 434 kts 290°
2026-05-04 14:18 43.57779 21.86871 36118 ft 434 kts 290°
2026-05-04 14:19 43.61299 21.70940 36117 ft 434 kts 290°
2026-05-04 14:19 43.63053 21.62971 36106 ft 434 kts 290°
2026-05-04 14:20 43.64802 21.55006 36119 ft 433 kts 290°
2026-05-04 14:20 43.66532 21.47043 36126 ft 433 kts 290°
2026-05-04 14:21 43.69120 21.35103 36128 ft 432 kts 290°
2026-05-04 14:21 43.70843 21.27151 36118 ft 432 kts 290°
2026-05-04 14:22 43.72550 21.19207 36133 ft 431 kts 290°
2026-05-04 14:22 43.74246 21.11270 36137 ft 430 kts 290°
2026-05-04 14:23 43.76783 20.99384 36135 ft 429 kts 290°
2026-05-04 14:24 43.78461 20.91464 36116 ft 429 kts 290°
2026-05-04 14:24 43.80135 20.83546 36125 ft 428 kts 290°
2026-05-04 14:25 43.81798 20.75631 36124 ft 428 kts 290°
2026-05-04 14:25 43.84283 20.63758 36126 ft 428 kts 290°
2026-05-04 14:26 43.85920 20.55902 36122 ft 427 kts 290°
2026-05-04 14:26 43.87566 20.48001 36127 ft 426 kts 290°
2026-05-04 14:27 43.89201 20.40112 36128 ft 426 kts 290°
2026-05-04 14:27 43.90830 20.32222 36124 ft 426 kts 289°
2026-05-04 14:28 43.92449 20.24327 36113 ft 425 kts 289°
2026-05-04 14:28 43.94062 20.16445 36122 ft 424 kts 289°
2026-05-04 14:29 43.97267 20.00701 36118 ft 423 kts 289°
2026-05-04 14:30 43.98855 19.92835 36102 ft 423 kts 289°
2026-05-04 14:31 44.01224 19.81042 36105 ft 422 kts 289°
2026-05-04 14:32 44.04374 19.65314 36097 ft 422 kts 289°
2026-05-04 14:32 44.05933 19.57450 36081 ft 422 kts 288°
2026-05-04 14:33 44.07488 19.49576 36089 ft 422 kts 288°
2026-05-04 14:33 44.09044 19.41706 36092 ft 422 kts 288°
2026-05-04 14:34 44.10583 19.33880 36090 ft 422 kts 288°
2026-05-04 14:34 44.12119 19.25989 36092 ft 422 kts 288°
2026-05-04 14:35 44.13650 19.18103 36088 ft 422 kts 288°
2026-05-04 14:35 44.15080 19.10170 36091 ft 423 kts 286°
2026-05-04 14:36 44.16403 19.02194 36089 ft 422 kts 285°
2026-05-04 14:36 44.17725 18.94227 36093 ft 422 kts 286°
2026-05-04 14:37 44.19061 18.86266 36081 ft 422 kts 285°
2026-05-04 14:37 44.20401 18.78308 36090 ft 422 kts 285°
2026-05-04 14:38 44.21741 18.70353 36097 ft 421 kts 285°
2026-05-04 14:38 44.23073 18.62399 36101 ft 421 kts 285°
2026-05-04 14:39 44.24379 18.54496 36090 ft 421 kts 285°
2026-05-04 14:39 44.25684 18.46540 36081 ft 421 kts 285°
2026-05-04 14:40 44.27646 18.34600 36074 ft 421 kts 285°
2026-05-04 14:40 44.28939 18.26641 36073 ft 421 kts 285°
2026-05-04 14:41 44.30229 18.18675 36048 ft 421 kts 285°
2026-05-04 14:42 44.32806 18.02754 36072 ft 420 kts 285°
2026-05-04 14:42 44.34081 17.94793 36066 ft 420 kts 285°
2026-05-04 14:43 44.35341 17.86830 36064 ft 419 kts 284°
2026-05-04 14:43 44.36600 17.78874 36057 ft 419 kts 286°
2026-05-04 14:44 44.38797 17.71415 36054 ft 415 kts 300°
2026-05-04 14:44 44.41525 17.64308 36048 ft 415 kts 300°
2026-05-04 14:45 44.44222 17.57221 36052 ft 415 kts 300°
2026-05-04 14:45 44.46938 17.50079 36038 ft 416 kts 300°
2026-05-04 14:46 44.49642 17.42928 36045 ft 415 kts 299°
2026-05-04 14:46 44.51899 17.36931 36044 ft 415 kts 299°
2026-05-04 14:47 44.54580 17.29817 36047 ft 415 kts 299°
2026-05-04 14:47 44.57291 17.22607 36040 ft 415 kts 299°
2026-05-04 14:48 44.59965 17.15487 36039 ft 415 kts 299°
2026-05-04 14:48 44.62657 17.08315 36044 ft 415 kts 299°
2026-05-04 14:49 44.65335 17.01143 36042 ft 415 kts 299°
2026-05-04 14:49 44.68006 16.93959 36043 ft 414 kts 298°
2026-05-04 14:50 44.70669 16.86766 36039 ft 414 kts 298°
2026-05-04 14:50 44.73328 16.79578 36047 ft 414 kts 298°
2026-05-04 14:51 44.75989 16.72393 36044 ft 414 kts 298°
2026-05-04 14:51 44.78643 16.65195 36040 ft 414 kts 298°
2026-05-04 14:52 44.81272 16.58036 36040 ft 414 kts 298°
2026-05-04 14:52 44.83912 16.50822 36044 ft 414 kts 297°
2026-05-04 14:53 44.86547 16.43606 36045 ft 414 kts 297°
2026-05-04 14:53 44.89179 16.36394 36047 ft 413 kts 297°
2026-05-04 14:54 44.91799 16.29180 36044 ft 413 kts 297°
2026-05-04 14:54 44.94415 16.21967 36042 ft 413 kts 297°
2026-05-04 14:55 44.97023 16.14765 36045 ft 412 kts 297°
2026-05-04 14:55 44.99622 16.07562 36055 ft 411 kts 297°
2026-05-04 14:56 45.02212 16.00363 36053 ft 411 kts 297°
2026-05-04 14:56 45.04793 15.93155 36061 ft 411 kts 297°
2026-05-04 14:57 45.07375 15.85937 36046 ft 411 kts 296°
2026-05-04 14:57 45.09952 15.78716 36046 ft 411 kts 296°
2026-05-04 14:58 45.12528 15.71480 36046 ft 412 kts 296°
2026-05-04 14:58 45.15083 15.64283 36048 ft 412 kts 296°
2026-05-04 14:59 45.17647 15.57031 36049 ft 412 kts 296°
2026-05-04 15:00 45.21497 15.46120 36047 ft 413 kts 296°
2026-05-04 15:00 45.24056 15.38829 36050 ft 413 kts 296°
2026-05-04 15:01 45.27894 15.27892 36061 ft 413 kts 295°
2026-05-04 15:01 45.30443 15.20584 36063 ft 413 kts 295°
2026-05-04 15:02 45.32993 15.13267 36062 ft 413 kts 295°
2026-05-04 15:02 45.35542 15.05936 36065 ft 413 kts 295°
2026-05-04 15:03 45.38065 14.98657 36092 ft 413 kts 295°
2026-05-04 15:03 45.40600 14.91323 36093 ft 413 kts 295°
2026-05-04 15:04 45.43120 14.83977 36097 ft 413 kts 295°
2026-05-04 15:04 45.45644 14.76628 36087 ft 413 kts 295°
2026-05-04 15:05 45.48166 14.69262 36094 ft 414 kts 295°
2026-05-04 15:05 45.50688 14.61898 36096 ft 414 kts 295°
2026-05-04 15:06 45.53206 14.54508 36107 ft 414 kts 295°
2026-05-04 15:07 45.56967 14.43421 36108 ft 414 kts 294°
2026-05-04 15:07 45.59470 14.36025 36106 ft 413 kts 294°
2026-05-04 15:08 45.61964 14.28620 36100 ft 414 kts 294°
2026-05-04 15:08 45.64460 14.21206 36098 ft 414 kts 294°
2026-05-04 15:09 45.66958 14.13770 36090 ft 415 kts 294°
2026-05-04 15:09 45.69436 14.06359 36090 ft 416 kts 294°
2026-05-04 15:10 45.73166 13.95147 36100 ft 416 kts 294°
2026-05-04 15:11 45.76886 13.83934 36098 ft 416 kts 294°
2026-05-04 15:11 45.79366 13.76438 36080 ft 417 kts 294°
2026-05-04 15:12 45.81848 13.68919 36077 ft 418 kts 294°
2026-05-04 15:12 45.84326 13.61376 36075 ft 418 kts 293°
2026-05-04 15:13 45.86730 13.53777 36075 ft 418 kts 291°
2026-05-04 15:13 45.88983 13.46095 36077 ft 418 kts 290°
2026-05-04 15:14 45.91207 13.38379 36087 ft 418 kts 290°
2026-05-04 15:14 45.93451 13.30684 36088 ft 418 kts 291°
2026-05-04 15:15 45.95711 13.22995 36081 ft 418 kts 291°
2026-05-04 15:15 45.97961 13.15297 36092 ft 418 kts 290°
2026-05-04 15:16 46.01324 13.03733 36086 ft 418 kts 290°
2026-05-04 15:17 46.04674 12.92153 36071 ft 418 kts 290°
2026-05-04 15:17 46.07994 12.80605 36072 ft 418 kts 290°
2026-05-04 15:18 46.10215 12.72866 36065 ft 418 kts 290°
2026-05-04 15:19 46.13543 12.61242 36061 ft 418 kts 290°
2026-05-04 15:19 46.16865 12.49608 36047 ft 418 kts 290°
2026-05-04 15:20 46.19062 12.41837 36070 ft 419 kts 289°
2026-05-04 15:20 46.21255 12.34059 36079 ft 418 kts 289°
2026-05-04 15:21 46.23445 12.26275 36083 ft 418 kts 290°
2026-05-04 15:22 46.26725 12.14599 36088 ft 418 kts 289°
2026-05-04 15:22 46.29986 12.02904 36092 ft 418 kts 289°
2026-05-04 15:23 46.32153 11.95102 36088 ft 418 kts 289°
2026-05-04 15:23 46.34299 11.87356 36084 ft 418 kts 289°
2026-05-04 15:24 46.38610 11.71723 36085 ft 418 kts 289°
2026-05-04 15:25 46.40757 11.63890 36043 ft 418 kts 289°
2026-05-04 15:26 46.43970 11.52134 36019 ft 418 kts 289°
2026-05-04 15:26 46.47176 11.40351 36003 ft 418 kts 289°
2026-05-04 15:27 46.50354 11.28617 36003 ft 418 kts 289°
2026-05-04 15:28 46.53528 11.16817 36068 ft 419 kts 289°
2026-05-04 15:29 46.56693 11.04987 36068 ft 419 kts 288°
2026-05-04 15:30 46.64028 10.77379 36096 ft 418 kts 288°
2026-05-04 15:31 46.67146 10.65545 36100 ft 417 kts 288°
2026-05-04 15:32 46.72304 10.45808 36106 ft 417 kts 288°
2026-05-04 15:34 46.77733 10.26256 36103 ft 418 kts 290°
2026-05-04 15:34 46.81153 10.14570 36122 ft 417 kts 289°
2026-05-04 15:35 46.84486 10.02838 36118 ft 417 kts 289°
2026-05-04 15:36 46.87835 9.91099 36092 ft 417 kts 289°
2026-05-04 15:36 46.90055 9.83272 36081 ft 417 kts 289°
2026-05-04 15:37 46.92263 9.75436 36073 ft 417 kts 289°
2026-05-04 15:37 46.94464 9.67574 36051 ft 417 kts 289°
2026-05-04 15:38 46.96642 9.59762 36045 ft 417 kts 289°
2026-05-04 15:38 46.98845 9.51887 36032 ft 417 kts 289°
2026-05-04 15:39 47.00687 9.45288 36034 ft 418 kts 289°
2026-05-04 15:40 47.03978 9.33440 36011 ft 419 kts 289°
2026-05-04 15:40 47.06164 9.25520 36012 ft 419 kts 289°
2026-05-04 15:41 47.08351 9.17590 36004 ft 419 kts 288°
2026-05-04 15:41 47.10527 9.09654 36008 ft 419 kts 288°
2026-05-04 15:42 47.12683 9.01762 36010 ft 419 kts 288°
2026-05-04 15:42 47.14844 8.93805 36006 ft 420 kts 288°
2026-05-04 15:43 47.16982 8.85826 35994 ft 419 kts 287°
2026-05-04 15:43 47.19023 8.77806 35990 ft 419 kts 287°
2026-05-04 15:44 47.21041 8.69763 36004 ft 419 kts 287°
2026-05-04 15:44 47.23076 8.61717 35994 ft 419 kts 287°
2026-05-04 15:45 47.25103 8.53676 35988 ft 419 kts 287°
2026-05-04 15:45 47.27137 8.45610 35987 ft 420 kts 287°
2026-05-04 15:46 47.29162 8.37545 35988 ft 420 kts 286°
2026-05-04 15:46 47.31178 8.29481 36017 ft 420 kts 286°
2026-05-04 15:47 47.33192 8.21392 36009 ft 420 kts 286°
2026-05-04 15:47 47.35199 8.13310 36006 ft 420 kts 286°
2026-05-04 15:48 47.37200 8.05218 35998 ft 420 kts 286°
2026-05-04 15:48 47.40191 7.93075 36014 ft 420 kts 285°
2026-05-04 15:49 47.42171 7.84971 36006 ft 420 kts 285°
2026-05-04 15:49 47.44142 7.76858 36023 ft 420 kts 285°
2026-05-04 15:50 47.46109 7.68792 36020 ft 420 kts 285°
2026-05-04 15:50 47.47669 7.60479 36033 ft 417 kts 280°
2026-05-04 15:51 47.49061 7.52217 36062 ft 417 kts 280°
2026-05-04 15:51 47.50459 7.43904 36034 ft 417 kts 279°
2026-05-04 15:52 47.51845 7.35587 36037 ft 416 kts 279°
2026-05-04 15:52 47.53216 7.27265 36032 ft 416 kts 279°
2026-05-04 15:53 47.54577 7.18942 36033 ft 416 kts 279°
2026-05-04 15:53 47.55932 7.10614 36056 ft 416 kts 279°
2026-05-04 15:54 47.57292 7.02288 36050 ft 416 kts 279°
2026-05-04 15:54 47.58640 6.93974 36045 ft 416 kts 279°
2026-05-04 15:55 47.59986 6.85625 36050 ft 416 kts 278°
2026-05-04 15:55 47.61318 6.77284 36042 ft 416 kts 278°
2026-05-04 15:56 47.62650 6.68931 36060 ft 416 kts 278°
2026-05-04 15:56 47.63966 6.60632 36055 ft 417 kts 278°
2026-05-04 15:57 47.65286 6.52270 36052 ft 416 kts 278°
2026-05-04 15:57 47.66601 6.43908 36042 ft 416 kts 278°
2026-05-04 15:58 47.67912 6.35535 36038 ft 416 kts 278°
2026-05-04 15:58 47.69255 6.27175 36058 ft 418 kts 280°
2026-05-04 15:59 47.70949 6.18901 36049 ft 420 kts 283°
2026-05-04 15:59 47.72806 6.10669 36044 ft 420 kts 283°
2026-05-04 16:00 47.74610 6.02420 36038 ft 419 kts 282°
2026-05-04 16:00 47.76349 5.94150 36038 ft 419 kts 282°
2026-05-04 16:01 47.78073 5.85863 36061 ft 420 kts 282°
2026-05-04 16:01 47.79794 5.77573 36050 ft 420 kts 282°
2026-05-04 16:02 47.81520 5.69289 36035 ft 419 kts 282°
2026-05-04 16:03 47.84096 5.56860 36021 ft 419 kts 282°
2026-05-04 16:03 47.85798 5.48561 36043 ft 419 kts 282°
2026-05-04 16:04 47.87495 5.40261 36023 ft 419 kts 282°
2026-05-04 16:04 47.90142 5.27838 36015 ft 423 kts 289°
2026-05-04 16:05 47.93365 5.20400 36001 ft 435 kts 307°
2026-05-04 16:06 47.99458 5.10417 35990 ft 436 kts 307°
2026-05-04 16:07 48.07588 4.96950 35991 ft 437 kts 307°
2026-05-04 16:08 48.15714 4.83430 35983 ft 437 kts 307°
2026-05-04 16:09 48.25876 4.66441 35991 ft 438 kts 307°
2026-05-04 16:10 48.34002 4.52779 35974 ft 438 kts 307°
2026-05-04 16:11 48.42082 4.39110 35961 ft 439 kts 307°
2026-05-04 16:12 48.54235 4.18427 35965 ft 440 kts 307°
2026-05-04 16:13 48.62326 4.04566 35958 ft 440 kts 306°
2026-05-04 16:14 48.70413 3.90634 35954 ft 441 kts 306°
2026-05-04 16:16 48.81194 3.73968 35966 ft 444 kts 312°
2026-05-04 16:17 48.92227 3.57660 35965 ft 443 kts 310°
2026-05-04 16:18 49.00993 3.44442 35977 ft 444 kts 311°
2026-05-04 16:19 49.11942 3.27889 35974 ft 444 kts 310°
2026-05-04 16:20 49.22872 3.11233 35968 ft 443 kts 310°
2026-05-04 16:22 49.33777 2.94550 35962 ft 443 kts 311°
2026-05-04 16:23 49.46819 2.74403 35962 ft 443 kts 311°
2026-05-04 16:25 49.59835 2.54134 35972 ft 444 kts 311°
2026-05-04 16:26 49.73119 2.30122 35954 ft 442 kts 306°
2026-05-04 16:28 49.83051 2.11987 35957 ft 442 kts 307°
2026-05-04 16:28 49.88995 2.01026 35005 ft 450 kts 306°
2026-05-04 16:29 49.96994 1.86216 32621 ft 439 kts 306°
2026-05-04 16:30 50.02787 1.75444 31084 ft 427 kts 307°
2026-05-04 16:31 50.06540 1.68462 30123 ft 420 kts 309°
2026-05-04 16:31 50.12968 1.59451 28728 ft 408 kts 317°
2026-05-04 16:32 50.19288 1.50855 27431 ft 396 kts 316°
2026-05-04 16:33 50.23395 1.45247 26568 ft 389 kts 316°
2026-05-04 16:33 50.27439 1.39724 25687 ft 383 kts 316°
2026-05-04 16:34 50.31426 1.34256 24775 ft 380 kts 316°
2026-05-04 16:34 50.33414 1.31527 24300 ft 380 kts 316°
2026-05-04 16:35 50.39358 1.23348 22829 ft 377 kts 316°
2026-05-04 16:35 50.45183 1.15316 21465 ft 367 kts 317°
2026-05-04 16:36 50.47095 1.12671 21022 ft 365 kts 317°
2026-05-04 16:36 50.50873 1.07436 20158 ft 360 kts 317°
2026-05-04 16:37 50.54325 1.01827 19294 ft 355 kts 311°
2026-05-04 16:37 50.55980 0.99035 18875 ft 353 kts 312°
2026-05-04 16:37 50.59320 0.93405 17997 ft 350 kts 313°
2026-05-04 16:38 50.62615 0.87836 17159 ft 345 kts 312°
2026-05-04 16:39 50.67321 0.79470 16010 ft 335 kts 300°
2026-05-04 16:39 50.69471 0.73159 15604 ft 319 kts 296°
2026-05-04 16:40 50.71495 0.67018 14718 ft 313 kts 296°
2026-05-04 16:40 50.73475 0.60961 13786 ft 308 kts 296°
2026-05-04 16:41 50.75407 0.54998 12567 ft 302 kts 296°
2026-05-04 16:41 50.78227 0.46272 10682 ft 293 kts 296°
2026-05-04 16:42 50.80959 0.37806 8790 ft 283 kts 296°
2026-05-04 16:43 50.82703 0.32299 7498 ft 277 kts 296°
2026-05-04 16:43 50.84402 0.26876 6972 ft 276 kts 296°
2026-05-04 16:43 50.85252 0.24153 6990 ft 276 kts 296°
2026-05-04 16:44 50.88642 0.13261 6995 ft 273 kts 297°
2026-05-04 16:45 50.90287 0.07860 6995 ft 273 kts 296°
2026-05-04 16:46 50.92783 -0.00270 7006 ft 274 kts 296°
2026-05-04 16:46 50.94261 -0.05844 6672 ft 273 kts 291°
2026-05-04 16:47 50.95609 -0.11435 5853 ft 270 kts 291°
2026-05-04 16:47 50.96927 -0.16975 5091 ft 267 kts 291°
2026-05-04 16:48 50.98860 -0.25111 4763 ft 245 kts 291°
2026-05-04 16:48 50.99440 -0.27579 4382 ft 234 kts 291°
2026-05-04 16:49 51.00555 -0.32380 3684 ft 232 kts 291°
2026-05-04 16:49 51.01658 -0.37205 3065 ft 229 kts 291°
2026-05-04 16:50 51.02730 -0.41942 3009 ft 231 kts 291°
2026-05-04 16:50 51.04383 -0.45884 2997 ft 202 kts 339°
2026-05-04 16:51 51.06957 -0.46895 3011 ft 186 kts 351°
2026-05-04 16:51 51.08230 -0.47214 3005 ft 184 kts
2026-05-04 16:51 51.10554 -0.45832 3007 ft 183 kts 45°
2026-05-04 16:52 51.11593 -0.42192 2902 ft 185 kts 76°
2026-05-04 16:52 51.11869 -0.40197 2693 ft 184 kts 77°
2026-05-04 16:53 51.12422 -0.36230 2201 ft 181 kts 77°
2026-05-04 16:53 51.13191 -0.30722 1514 ft 163 kts 76°
2026-05-04 16:54 51.13427 -0.29026 1301 ft 151 kts 76°
2026-05-04 16:55 51.14291 -0.22796 518 ft 142 kts 77°
2026-05-04 16:55 51.14716 -0.19800 214 ft 124 kts 76°
2026-05-04 16:56 51.14941 -0.18142 213 ft 49 kts 77°
2026-05-04 16:56 51.15108 -0.17766 210 ft 0 kts
2026-05-04 16:57 51.15110 -0.17766 209 ft 0 kts
2026-05-04 16:58 51.15143 -0.17768 205 ft 6 kts 354°
2026-05-04 16:59 51.15221 -0.17789 209 ft 0 kts 351°
2026-05-04 17:00 51.15345 -0.17375 208 ft 11 kts 352°
2026-05-04 17:00 51.15515 -0.17434 214 ft 0 kts 345°
2026-05-04 17:01 51.15534 -0.17548 205 ft 5 kts 261°
2026-05-04 17:02 51.15556 -0.17609 210 ft 7 kts 332°
2026-05-04 17:02 51.15593 -0.17626 205 ft 0 kts 345°